Wenatchee, WA
on Sunday, December 2, 2012

Sunday
Previous Day Next Day
Daily Summary
 ActualAverageRecord
Temperature
Mean Temperature °F 28°F  
Max Temperature 45°F 34°F 58°F (1975)
Min Temperature 38°F 23°F 5°F (2005)
Degree Days
Heating Degree Days 23 37  
Month to date heating degree days 46 74  
Since 1 July heating degree days 1661 1956  
Cooling Degree Days 0 0  
Month to date cooling degree days 0 0  
Year to date cooling degree days 294 249  
Moisture
Dew Point 35°F   
Average Humidity 78    
Maximum Humidity 100    
Minimum Humidity 39    
Precipitation
Precipitation 0.43 in 0.09 in 0.78 in (1980)
Month to date precipitation 0.50 0.18  
Year to date precipitation 21.04 14.73  
Snow
Snow 0.00 in 0.50 in in ()
Month to date snowfall 0.0 0.9  
Since 1 July snowfall 7.2 8.8  
Snow Depth 0.00 in   
Wind
Wind Speed 6 mph   
Max Wind Speed 18 mph   
Max Gust Speed 36 mph   
Visibility 8 miles   
Events Fog , Rain   

Key: T is trace of precipitation, MM is missing value
Source: NWS Daily Summary
Time(PST)TemperatureDew PointHumidity Pressure Visibility Wind DirectionWind SpeedGust SpeedPrecipitationEvents Conditions
12:09 AM 44.6°F 37.4°F 76% 29.40 in 10.0 miles ESE 9.2 mph - N/A   Overcast
12:55 AM 44.1°F 37.9°F 79% 29.36 in 10.0 miles SE 10.4 mph - N/A   Overcast
1:55 AM 43.0°F 39.0°F 86% 29.32 in 10.0 miles ESE 8.1 mph - 0.00 in Rain Light Rain
2:55 AM 42.1°F 39.0°F 89% 29.28 in 8.0 miles East 8.1 mph - 0.05 in Rain Light Rain
3:30 AM 42.8°F 39.2°F 87% 29.25 in 6.0 miles ESE 3.5 mph - 0.03 in Rain Light Rain
3:55 AM 43.0°F 39.9°F 89% 29.25 in 7.0 miles NW 3.5 mph - 0.04 in Rain Light Rain
4:15 AM 42.8°F 39.2°F 87% 29.22 in 5.0 miles Calm Calm - 0.01 in Rain Light Rain
4:45 AM 42.8°F 39.2°F 87% 29.21 in 1.8 miles WNW 3.5 mph - 0.03 in Rain Light Rain
4:55 AM 39.9°F 37.9°F 93% 29.21 in 0.5 miles Calm Calm - 0.04 in Fog , Rain Light Rain
5:14 AM 39.2°F 39.2°F 100% 29.21 in 1.5 miles Calm Calm - 0.00 in   Overcast
5:27 AM 41.0°F 39.2°F 93% 29.21 in 2.5 miles Calm Calm - 0.00 in   Overcast
5:35 AM 41.0°F 37.4°F 87% 29.21 in 3.0 miles WNW 3.5 mph - 0.00 in   Overcast
5:45 AM 41.0°F 37.4°F 87% 29.22 in 2.5 miles Calm Calm - 0.00 in   Overcast
5:52 AM 41.0°F 39.2°F 93% 29.21 in 4.0 miles Calm Calm - 0.00 in   Overcast
5:55 AM 41.0°F 39.0°F 93% 29.23 in 4.0 miles Calm Calm - 0.00 in   Overcast
6:19 AM 39.2°F 37.4°F 93% 29.21 in 0.8 miles South 3.5 mph - N/A   Overcast
6:53 AM 39.2°F 37.4°F 93% 29.19 in 2.0 miles WNW 8.1 mph - N/A   Overcast
6:55 AM 39.9°F 37.0°F 89% 29.21 in 5.0 miles WNW 8.1 mph - N/A   Overcast
7:30 AM 39.2°F 37.4°F 93% 29.23 in 10.0 miles NW 8.1 mph - N/A   Overcast
7:42 AM 39.2°F 35.6°F 87% 29.23 in 10.0 miles NNW 6.9 mph - N/A   Overcast
7:55 AM 39.9°F 37.0°F 89% 29.24 in 10.0 miles NW 6.9 mph - N/A   Overcast
8:42 AM 39.2°F 35.6°F 87% 29.25 in 10.0 miles Calm Calm - 0.00 in   Scattered Clouds
8:55 AM 39.9°F 37.0°F 89% 29.26 in 10.0 miles South 3.5 mph - 0.00 in   Clear
9:55 AM 43.0°F 37.0°F 80% 29.31 in 10.0 miles SW 8.1 mph - N/A   Clear
10:55 AM 48.9°F 33.1°F 54% 29.35 in 10.0 miles West 11.5 mph 18.4 mph N/A   Clear
11:55 AM 51.1°F 28.9°F 43% 29.38 in 10.0 miles NW 13.8 mph 29.9 mph N/A   Partly Cloudy
12:55 PM 51.1°F 27.0°F 39% 29.43 in 10.0 miles West 16.1 mph 35.7 mph N/A   Partly Cloudy
1:55 PM 51.1°F 28.9°F 43% 29.48 in 10.0 miles West 18.4 mph 27.6 mph N/A   Clear
2:55 PM 51.1°F 28.9°F 43% 29.52 in 10.0 miles WNW 9.2 mph 20.7 mph N/A   Scattered Clouds
3:55 PM 48.9°F 30.0°F 48% 29.56 in 10.0 miles North 6.9 mph - N/A   Mostly Cloudy
4:55 PM 45.0°F 30.9°F 58% 29.62 in 10.0 miles NNE 5.8 mph - N/A   Mostly Cloudy
5:55 PM 44.1°F 33.1°F 65% 29.64 in 10.0 miles Calm Calm - N/A   Mostly Cloudy
6:55 PM 42.1°F 33.1°F 70% 29.67 in 10.0 miles West 3.5 mph - N/A   Overcast
7:55 PM 41.0°F 34.0°F 76% 29.68 in 10.0 miles SE 3.5 mph - N/A   Mostly Cloudy
8:55 PM 37.9°F 32.0°F 79% 29.72 in 10.0 miles NE 4.6 mph - N/A   Partly Cloudy
9:55 PM 37.0°F 32.0°F 82% 29.74 in 10.0 miles East 8.1 mph - N/A   Clear
10:55 PM 39.0°F 32.0°F 76% 29.75 in 10.0 miles Calm Calm - N/A   Scattered Clouds
11:55 PM 39.9°F 32.0°F 73% 29.78 in 10.0 miles East 6.9 mph - N/A   Overcast
Moon Phase
Dec. 02 Dec. 06 Dec. 13 Dec. 20 Dec. 28
Sunrise:07:29 AM (PST) Moon Rise:08:11 PM (PST)12/2
Sunset:04:11 PM (PST) Moon Set:10:15 AM (PST)12/2

Copyright © 2014 The Weather Underground, Inc.